TimeCDT,TemperatureF,Dew PointF,Humidity,Sea Level PressureIn,VisibilityMPH,Wind Direction,Wind SpeedMPH,Gust SpeedMPH,PrecipitationIn,Events,Conditions,WindDirDegrees,DateUTC
12:15 AM,67.5,65.3,93,29.85,7.0,Calm,Calm,-,N/A,,Clear,0,2013-07-01 05:15:00
12:35 AM,67.3,65.5,94,29.85,10.0,Calm,Calm,-,N/A,,Clear,0,2013-07-01 05:35:00
12:55 AM,66.6,64.4,93,29.85,10.0,Calm,Calm,-,N/A,,Clear,0,2013-07-01 05:55:00
1:15 AM,66.4,64.4,93,29.85,10.0,Calm,Calm,-,N/A,,Clear,0,2013-07-01 06:15:00
1:35 AM,66.2,64.6,94,29.85,7.0,Calm,Calm,-,N/A,,Clear,0,2013-07-01 06:35:00
1:55 AM,65.3,63.7,94,29.86,10.0,Calm,Calm,-,N/A,,Clear,0,2013-07-01 06:55:00
2:15 AM,64.9,63.5,95,29.86,7.0,Calm,Calm,-,N/A,,Clear,0,2013-07-01 07:15:00
2:35 AM,64.4,63.0,95,29.86,7.0,Calm,Calm,-,N/A,,Clear,0,2013-07-01 07:35:00
2:55 AM,64.4,63.0,95,29.86,7.0,Calm,Calm,-,N/A,,Clear,0,2013-07-01 07:55:00
3:15 AM,64.2,62.8,95,29.86,7.0,Calm,Calm,-,N/A,,Clear,0,2013-07-01 08:15:00
3:35 AM,64.0,62.8,96,29.87,7.0,Calm,Calm,-,N/A,,Clear,0,2013-07-01 08:35:00
3:55 AM,63.9,62.6,96,29.87,10.0,Calm,Calm,-,N/A,,Clear,0,2013-07-01 08:55:00
4:15 AM,63.7,62.6,96,29.87,10.0,Calm,Calm,-,N/A,,Clear,0,2013-07-01 09:15:00
4:35 AM,63.1,61.9,96,29.87,7.0,Calm,Calm,-,N/A,,Clear,0,2013-07-01 09:35:00
4:55 AM,63.5,62.1,95,29.88,7.0,Calm,Calm,-,N/A,,Clear,0,2013-07-01 09:55:00
5:15 AM,63.0,61.7,96,29.88,5.0,Calm,Calm,-,N/A,,Clear,0,2013-07-01 10:15:00
5:35 AM,63.1,61.7,95,29.88,10.0,Calm,Calm,-,N/A,,Clear,0,2013-07-01 10:35:00
5:55 AM,63.1,61.7,95,29.89,10.0,Calm,Calm,-,N/A,,Clear,0,2013-07-01 10:55:00
6:15 AM,62.8,61.3,95,29.89,10.0,Calm,Calm,-,N/A,,Clear,0,2013-07-01 11:15:00
6:35 AM,63.5,61.9,94,29.89,10.0,Calm,Calm,-,N/A,,Clear,0,2013-07-01 11:35:00
6:55 AM,65.3,63.5,94,29.89,10.0,Calm,Calm,-,N/A,,Clear,0,2013-07-01 11:55:00
7:15 AM,67.5,64.0,89,29.90,10.0,Calm,Calm,-,N/A,,Clear,0,2013-07-01 12:15:00
7:35 AM,68.4,64.2,87,29.90,5.0,NNW,4.6,-,N/A,,Clear,330,2013-07-01 12:35:00
7:55 AM,70.5,65.3,83,29.91,10.0,NNW,3.5,-,N/A,,Clear,330,2013-07-01 12:55:00
8:15 AM,72.3,65.5,79,29.91,10.0,NNW,3.5,-,N/A,,Clear,340,2013-07-01 13:15:00
8:35 AM,73.6,65.8,77,29.92,10.0,North,3.5,-,N/A,,Clear,350,2013-07-01 13:35:00
8:55 AM,76.1,65.7,70,29.92,10.0,North,4.6,-,N/A,,Clear,350,2013-07-01 13:55:00
9:15 AM,76.8,65.8,69,29.92,10.0,North,5.8,-,N/A,,Clear,360,2013-07-01 14:15:00
9:35 AM,77.9,65.1,65,29.93,10.0,North,4.6,-,N/A,,Clear,360,2013-07-01 14:35:00
9:55 AM,79.2,65.1,62,29.92,10.0,NNW,4.6,-,N/A,,Clear,340,2013-07-01 14:55:00
10:15 AM,79.9,65.3,61,29.93,10.0,ENE,3.5,-,N/A,,Clear,60,2013-07-01 15:15:00
10:35 AM,81.0,64.0,56,29.93,10.0,WNW,4.6,-,N/A,,Clear,300,2013-07-01 15:35:00
10:55 AM,81.3,63.9,55,29.93,10.0,WNW,5.8,-,N/A,,Clear,290,2013-07-01 15:55:00
11:15 AM,82.2,64.8,55,29.93,10.0,North,5.8,-,N/A,,Clear,10,2013-07-01 16:15:00
11:35 AM,82.4,63.9,53,29.92,10.0,NNW,6.9,-,N/A,,Clear,340,2013-07-01 16:35:00
11:55 AM,82.6,64.4,54,29.92,10.0,West,3.5,-,N/A,,Scattered Clouds,280,2013-07-01 16:55:00
12:15 PM,82.6,62.2,50,29.92,10.0,WNW,5.8,-,N/A,,Scattered Clouds,300,2013-07-01 17:15:00
12:35 PM,83.1,62.6,50,29.92,10.0,NW,6.9,-,N/A,,Scattered Clouds,310,2013-07-01 17:35:00
12:55 PM,83.7,62.8,49,29.91,10.0,North,5.8,-,N/A,,Clear,350,2013-07-01 17:55:00
1:15 PM,84.6,63.1,48,29.91,10.0,NW,6.9,-,N/A,,Clear,320,2013-07-01 18:15:00
1:35 PM,84.6,63.9,50,29.90,10.0,North,6.9,-,N/A,,Clear,350,2013-07-01 18:35:00
1:55 PM,85.1,62.2,46,29.90,10.0,North,8.1,-,N/A,,Clear,350,2013-07-01 18:55:00
2:15 PM,85.1,63.1,48,29.89,10.0,North,8.1,-,N/A,,Clear,360,2013-07-01 19:15:00
2:35 PM,84.9,63.0,48,29.89,10.0,NNW,9.2,-,N/A,,Scattered Clouds,330,2013-07-01 19:35:00
2:55 PM,84.9,62.6,47,29.89,10.0,North,5.8,-,N/A,,Clear,360,2013-07-01 19:55:00
3:15 PM,86.0,62.1,44,29.88,10.0,NW,6.9,-,N/A,,Clear,320,2013-07-01 20:15:00
3:35 PM,86.7,62.2,44,29.88,10.0,North,6.9,-,N/A,,Clear,360,2013-07-01 20:35:00
3:55 PM,87.1,60.8,41,29.88,10.0,NNW,9.2,-,N/A,,Clear,340,2013-07-01 20:55:00
4:15 PM,86.2,60.6,42,29.88,10.0,North,6.9,-,N/A,,Clear,350,2013-07-01 21:15:00
4:35 PM,85.8,60.6,43,29.88,10.0,North,8.1,16.1,N/A,,Clear,10,2013-07-01 21:35:00
4:55 PM,86.9,62.6,44,29.88,10.0,North,10.4,-,N/A,,Clear,350,2013-07-01 21:55:00
5:15 PM,86.5,60.1,41,29.88,10.0,North,8.1,-,N/A,,Clear,350,2013-07-01 22:15:00
5:35 PM,86.5,59.7,40,29.87,10.0,North,9.2,-,N/A,,Clear,350,2013-07-01 22:35:00
5:55 PM,85.3,60.4,43,29.88,10.0,North,5.8,-,N/A,,Clear,360,2013-07-01 22:55:00
6:15 PM,85.6,61.2,44,29.88,10.0,North,8.1,-,N/A,,Clear,350,2013-07-01 23:15:00
6:35 PM,82.6,61.5,49,29.88,10.0,North,8.1,-,N/A,,Clear,350,2013-07-01 23:35:00
6:55 PM,81.7,61.9,51,29.89,10.0,North,5.8,-,N/A,,Clear,360,2013-07-01 23:55:00
7:15 PM,80.2,65.5,61,29.90,10.0,Calm,Calm,-,N/A,,Clear,0,2013-07-02 00:15:00
7:55 PM,78.3,64.6,63,29.90,10.0,Calm,Calm,-,N/A,,Clear,0,2013-07-02 00:55:00
8:15 PM,76.5,65.8,70,29.90,10.0,Calm,Calm,-,N/A,,Clear,0,2013-07-02 01:15:00
8:35 PM,73.2,68.7,86,29.91,10.0,Calm,Calm,-,N/A,,Clear,0,2013-07-02 01:35:00
8:55 PM,71.8,69.1,91,29.92,10.0,Calm,Calm,-,N/A,,Clear,0,2013-07-02 01:55:00
9:15 PM,70.9,68.5,92,29.92,10.0,Calm,Calm,-,N/A,,Clear,0,2013-07-02 02:15:00
9:35 PM,69.8,67.6,93,29.93,10.0,Calm,Calm,-,N/A,,Clear,0,2013-07-02 02:35:00
9:55 PM,69.8,67.6,93,29.93,10.0,Calm,Calm,-,N/A,,Clear,0,2013-07-02 02:55:00
10:15 PM,68.9,67.1,94,29.94,10.0,Calm,Calm,-,N/A,,Clear,0,2013-07-02 03:15:00
10:35 PM,68.4,66.6,94,29.94,10.0,Calm,Calm,-,N/A,,Clear,0,2013-07-02 03:35:00
10:55 PM,68.0,66.2,94,29.94,10.0,Calm,Calm,-,N/A,,Clear,0,2013-07-02 03:55:00
11:15 PM,68.0,66.2,94,29.95,10.0,Calm,Calm,-,N/A,,Clear,0,2013-07-02 04:15:00
11:35 PM,68.0,66.4,95,29.95,7.0,Calm,Calm,-,N/A,,Clear,0,2013-07-02 04:35:00
11:55 PM,67.6,66.0,95,29.95,7.0,Calm,Calm,-,N/A,,Clear,0,2013-07-02 04:55:00